Regional Weather Roundup
Issued by NWS

Home | Current Version | Previous Version | Text Only | Print | Product List | Glossary On
Versions: 1 2 3 4 5 6 7 8 9 10 11 12 13 14 15 16 17 18 19 20 21 22 23 24 25 26 27 28 29 30 31 32 33 34 35 36 37 38 39 40 41 42 43 44 45 46 47 48 49 50
162
ASUS43 KBIS 151810
RWRND

NORTH DAKOTA REGIONAL WEATHER ROUNDUP
NATIONAL WEATHER SERVICE BISMARCK ND
1200 PM CST FRI DEC 15 2017

NOTE: "FAIR" INDICATES FEW OR NO CLOUDS BELOW 12,000 FEET WITH NO
SIGNIFICANT WEATHER AND/OR OBSTRUCTIONS TO VISIBILITY.


NDZ001>003-009>011-017-151900-
NORTHWEST NORTH DAKOTA

CITY           SKY/WX    TMP DP  RH WIND       PRES   REMARKS
WILLISTON      CLOUDY    39  23  52 W6        29.61F
MINOT          CLOUDY    37  26  64 SW10      29.59F
MINOT AFB      CLOUDY    36  26  67 SW7       29.58F
$$

NDZ018>021-031>035-040>046-151900-
SOUTHWEST NORTH DAKOTA

CITY           SKY/WX    TMP DP  RH WIND       PRES   REMARKS
BISMARCK       CLOUDY    36  25  64 SW5       29.67F
6HR MIN TEMP:  28; 6HR MAX TEMP:  36;

DICKINSON      MOSUNNY   41  23  48 W20       29.62F
GARRISON         N/A     36  26  67 SW9       29.62F
6HR MIN TEMP:  29; 6HR MAX TEMP:  36;

HETTINGER ARPT CLOUDY    40  23  50 W20       29.70F
$$

NDZ004>008-012>016-024-026-027-054-151900-
NORTHEAST NORTH DAKOTA

CITY           SKY/WX    TMP DP  RH WIND       PRES   REMARKS
GRAND FORKS    CLOUDY    20  16  84 S14       29.77F WCI   7
GRND FRKS AFB  FLURRIES  19  16  86 S12       29.75F WCI   7
DEVILS LAKE    CLOUDY    26  24  92 S8        29.67F WCI  18
$$

NDZ022-023-025-028>030-036>039-047>053-151900-
SOUTHEAST NORTH DAKOTA

CITY           SKY/WX    TMP DP  RH WIND       PRES   REMARKS
FARGO          CLOUDY    23  18  81 SE10      29.77F WCI  12
6HR MIN TEMP:  19; 6HR MAX TEMP:  23; 6HR PCP: TRACE;

JAMESTOWN      CLOUDY    28  26  92 S9        29.69F WCI  19
$$





USA.gov is the U.S. government's official web portal to all federal, state and local government web resources and services.